When you browse on this site, cookies collect data to enhance your experience and personalize the content and advertising you see.
Visit our Privacy Policy to learn more. By continuing to use the site, you agree to this use of cookies and data.
  • In Hungary
  • List of Countries
  • For 7 days
  • Water Temperature
  • Satellite Maps
  • Weather Map
  • News
  • Weather Widgets
  • user-avatar
    Login

    Hourly Weather Psikhiko

    Today, 18 December, Tuesday

    Time Temperature Precipitation Wind Pressure Humidity
    00:00 +11°C° 0.7 mm 3 mps 744 mmHg 81%
    01:00 +11°C° 0.7 mm 4 mps 744 mmHg 84%
    02:00 +11°C° 0 mm 3 mps 743 mmHg 88%
    03:00 +10°C° 0.9 mm 3 mps 743 mmHg 87%
    04:00 +10°C° 0.9 mm 4 mps 742 mmHg 87%
    05:00 +10°C° 0.9 mm 4 mps 742 mmHg 87%
    06:00 +10°C° 0.8 mm 4 mps 742 mmHg 87%
    07:00 +10°C° 0.8 mm 4 mps 742 mmHg 87%
    08:00 +10°C° 0 mm 3 mps 742 mmHg 87%
    09:00 +10°C° 0.8 mm 4 mps 742 mmHg 86%
    10:00 +10°C° 0.8 mm 4 mps 742 mmHg 84%
    11:00 +9°C° 0.8 mm 5 mps 742 mmHg 83%
    12:00 +9°C° 0.6 mm 5 mps 742 mmHg 81%
    13:00 +9°C° 0.6 mm 6 mps 742 mmHg 79%
    14:00 +9°C° 0.6 mm 6 mps 742 mmHg 77%
    15:00 +9°C° 0.6 mm 7 mps 743 mmHg 79%
    16:00 +9°C° 0.6 mm 7 mps 743 mmHg 81%
    17:00 +9°C° 0.6 mm 8 mps 743 mmHg 83%
    18:00 +7°C° 0.4 mm 8 mps 744 mmHg 82%
    19:00 +7°C° 0.4 mm 9 mps 744 mmHg 82%
    20:00 +7°C° 0.4 mm 9 mps 745 mmHg 82%
    21:00 +7°C° 0.2 mm 9 mps 745 mmHg 81%
    22:00 +7°C° 0.2 mm 9 mps 745 mmHg 81%
    23:00 +6°C° 0.2 mm 9 mps 746 mmHg 81%

    Tomorrow, 19 December, Wednesday

    Time Temperature Precipitation Wind Pressure Humidity
    00:00 +6°C° 0.3 mm 8 mps 746 mmHg 81%
    01:00 +6°C° 0.3 mm 8 mps 746 mmHg 81%
    02:00 +6°C° 0.3 mm 8 mps 747 mmHg 81%
    03:00 +6°C° 0.3 mm 7 mps 747 mmHg 81%
    04:00 +6°C° 0.3 mm 7 mps 747 mmHg 81%
    05:00 +6°C° 0.3 mm 7 mps 747 mmHg 81%
    06:00 +6°C° 0.2 mm 7 mps 748 mmHg 80%
    07:00 +6°C° 0.2 mm 7 mps 748 mmHg 80%
    08:00 +6°C° 0.2 mm 7 mps 748 mmHg 80%
    09:00 +6°C° 0.1 mm 7 mps 749 mmHg 78%
    10:00 +6°C° 0.1 mm 7 mps 750 mmHg 77%
    11:00 +8°C° 0.1 mm 7 mps 750 mmHg 75%
    12:00 +8°C° 0 mm 7 mps 750 mmHg 74%
    13:00 +8°C° 0 mm 7 mps 750 mmHg 73%
    14:00 +8°C° 0 mm 7 mps 750 mmHg 72%
    15:00 +8°C° 0 mm 6 mps 750 mmHg 72%
    16:00 +7°C° 0 mm 6 mps 751 mmHg 73%
    17:00 +7°C° 0 mm 5 mps 751 mmHg 74%
    18:00 +7°C° 0 mm 5 mps 751 mmHg 75%
    19:00 +7°C° 0 mm 5 mps 751 mmHg 76%
    20:00 +7°C° 0 mm 5 mps 752 mmHg 77%
    21:00 +7°C° 0 mm 4 mps 752 mmHg 78%
    22:00 +7°C° 0 mm 4 mps 752 mmHg 79%
    23:00 +6°C° 0 mm 4 mps 752 mmHg 80%

    Day after tomorrow, 20 December, Thursday

    Time Temperature Precipitation Wind Pressure Humidity
    00:00 +6°C° 0 mm 4 mps 752 mmHg 80%
    01:00 +6°C° 0 mm 4 mps 753 mmHg 81%
    02:00 +7°C° 0 mm 3 mps 753 mmHg 81%
    03:00 +7°C° 0 mm 3 mps 753 mmHg 81%
    04:00 +7°C° 0 mm 3 mps 753 mmHg 81%
    05:00 +7°C° 0 mm 3 mps 753 mmHg 81%
    06:00 +7°C° 0 mm 3 mps 753 mmHg 81%
    07:00 +7°C° 0 mm 3 mps 753 mmHg 81%
    08:00 +7°C° 0 mm 3 mps 753 mmHg 82%
    09:00 +7°C° 0 mm 3 mps 754 mmHg 78%
    10:00 +8°C° 0 mm 2 mps 754 mmHg 73%
    11:00 +9°C° 0 mm 2 mps 754 mmHg 69%
    12:00 +9°C° 0 mm 2 mps 754 mmHg 67%
    13:00 +10°C° 0 mm 2 mps 753 mmHg 66%
    14:00 +10°C° 0 mm 2 mps 753 mmHg 64%
    15:00 +10°C° 0 mm 2 mps 753 mmHg 66%
    16:00 +9°C° 0 mm 2 mps 753 mmHg 69%
    17:00 +9°C° 0 mm 2 mps 753 mmHg 71%
    18:00 +9°C° 0 mm 2 mps 753 mmHg 73%
    19:00 +8°C° 0 mm 2 mps 753 mmHg 76%
    20:00 +9°C° 0 mm 1 mps 753 mmHg 78%
    21:00 +9°C° 0 mm 1 mps 753 mmHg 79%
    22:00 +9°C° 0 mm 1 mps 753 mmHg 80%
    23:00 +9°C° 0 mm 1 mps 754 mmHg 81%

    21 December, Friday

    Time Temperature Precipitation Wind Pressure Humidity
    00:00 +8°C° 0 mm 1 mps 753 mmHg 81%
    01:00 +8°C° 0 mm 1 mps 753 mmHg 82%
    02:00 +8°C° 0 mm 1 mps 753 mmHg 83%
    03:00 +8°C° 0 mm 1 mps 753 mmHg 83%
    04:00 +8°C° 0 mm 1 mps 753 mmHg 84%
    05:00 +8°C° 0 mm 1 mps 753 mmHg 84%
    06:00 +8°C° 0 mm 1 mps 753 mmHg 84%
    07:00 +8°C° 0 mm 1 mps 753 mmHg 84%
    08:00 +8°C° 0 mm 1 mps 754 mmHg 85%
    09:00 +9°C° 0 mm 1 mps 754 mmHg 80%
    10:00 +10°C° 0 mm 1 mps 754 mmHg 75%
    11:00 +11°C° 0 mm 0 mps 754 mmHg 70%
    12:00 +11°C° 0 mm 0 mps 754 mmHg 68%
    13:00 +13°C° 0 mm 1 mps 753 mmHg 66%
    14:00 +13°C° 0 mm 1 mps 753 mmHg 65%
    15:00 +13°C° 0 mm 1 mps 753 mmHg 68%
    16:00 +12°C° 0 mm 1 mps 753 mmHg 71%
    17:00 +12°C° 0 mm 1 mps 753 mmHg 74%
    18:00 +12°C° 0 mm 1 mps 753 mmHg 76%
    19:00 +11°C° 0 mm 1 mps 753 mmHg 79%
    20:00 +11°C° 0 mm 1 mps 754 mmHg 82%
    21:00 +11°C° 0 mm 1 mps 754 mmHg 83%
    22:00 +10°C° 0 mm 1 mps 754 mmHg 84%
    23:00 +10°C° 0 mm 1 mps 754 mmHg 85%

    22 December, Saturday

    Time Temperature Precipitation Wind Pressure Humidity
    00:00 +9°C° 0 mm 0 mps 753 mmHg 86%
    01:00 +9°C° 0 mm 0 mps 753 mmHg 86%
    02:00 +9°C° 0 mm 0 mps 753 mmHg 87%
    03:00 +9°C° 0 mm 0 mps 753 mmHg 87%
    04:00 +8°C° 0 mm 0 mps 752 mmHg 87%
    05:00 +8°C° 0 mm 0 mps 752 mmHg 88%
    06:00 +9°C° 0 mm 1 mps 752 mmHg 88%
    07:00 +9°C° 0 mm 1 mps 753 mmHg 88%
    08:00 +9°C° 0 mm 1 mps 753 mmHg 88%
    09:00 +11°C° 0 mm 1 mps 753 mmHg 83%
    10:00 +12°C° 0 mm 1 mps 753 mmHg 78%
    11:00 +14°C° 0 mm 2 mps 753 mmHg 73%
    12:00 +14°C° 0 mm 2 mps 753 mmHg 71%
    13:00 +15°C° 0 mm 2 mps 752 mmHg 69%
    14:00 +15°C° 0 mm 2 mps 752 mmHg 67%
    15:00 +15°C° 0 mm 2 mps 752 mmHg 70%
    16:00 +14°C° 0 mm 1 mps 752 mmHg 73%
    17:00 +13°C° 0 mm 1 mps 752 mmHg 76%
    18:00 +13°C° 0 mm 1 mps 752 mmHg 79%
    19:00 +12°C° 0 mm 1 mps 752 mmHg 81%
    20:00 +12°C° 0 mm 1 mps 752 mmHg 84%
    21:00 +12°C° 0 mm 1 mps 752 mmHg 85%
    22:00 +12°C° 0 mm 1 mps 752 mmHg 86%
    23:00 +11°C° 0 mm 1 mps 752 mmHg 87%

    23 December, Sunday

    Time Temperature Precipitation Wind Pressure Humidity
    00:00 +11°C° 0 mm 1 mps 752 mmHg 87%
    01:00 +11°C° 0 mm 1 mps 752 mmHg 87%
    02:00 +11°C° 0 mm 1 mps 751 mmHg 88%
    03:00 +10°C° 0 mm 1 mps 751 mmHg 88%
    04:00 +10°C° 0 mm 1 mps 751 mmHg 88%
    05:00 +10°C° 0 mm 1 mps 751 mmHg 88%
    06:00 +10°C° 0 mm 1 mps 751 mmHg 87%
    07:00 +10°C° 0 mm 1 mps 751 mmHg 87%
    08:00 +10°C° 0 mm 1 mps 751 mmHg 86%
    09:00 +11°C° 0 mm 1 mps 751 mmHg 80%
    10:00 +13°C° 0 mm 1 mps 752 mmHg 73%
    11:00 +13°C° 0 mm 0 mps 752 mmHg 67%
    12:00 +15°C° 0 mm 1 mps 752 mmHg 64%
    13:00 +15°C° 0 mm 1 mps 751 mmHg 61%
    14:00 +16°C° 0 mm 1 mps 751 mmHg 57%
    15:00 +15°C° 0 mm 1 mps 751 mmHg 61%
    16:00 +15°C° 0 mm 1 mps 751 mmHg 65%
    17:00 +13°C° 0 mm 0 mps 751 mmHg 69%
    18:00 +12°C° 0 mm 0 mps 751 mmHg 72%
    19:00 +12°C° 0 mm 0 mps 751 mmHg 74%
    20:00 +11°C° 0 mm 0 mps 751 mmHg 77%
    21:00 +11°C° 0 mm 0 mps 752 mmHg 78%
    22:00 +11°C° 0 mm 0 mps 752 mmHg 79%
    23:00 +10°C° 0 mm 0 mps 752 mmHg 81%
    Show more